Location: Brotuna
(46.2000°N, 22.6000°E)
Time: 05:55:34
(UTC+00:00)

STARLINK-1225 - Pass Details

Date: 09 April 2020
Orbit: 549 x 550 km, 53.0° (Epoch: 29 May)

Event Time Altitude Azimuth Distance (km) Brightness Sun altitude
Rises 19:13:36 0° 300° (WNW) 2,727 8.7 -20.3°
Reaches altitude 10° 19:15:50 10° 301° (WNW) 1,831 7.5 -20.6°
Maximum altitude 19:20:01 89° 35° (NE) 556 3.5 -21.2°
Enters shadow 19:20:27 71° 118° (ESE) 586 3.4 -21.2°
